TimeEDT,TemperatureF,Dew PointF,Humidity,Sea Level PressureIn,VisibilityMPH,Wind Direction,Wind SpeedMPH,Gust SpeedMPH,PrecipitationIn,Events,Conditions,WindDirDegrees,DateUTC
12:54 AM,46.9,30.9,54,30.06,10.0,ENE,18.4,-,N/A,,Overcast,70,2014-04-03 04:54:00
1:54 AM,46.4,30.2,53,30.08,10.0,East,15.0,-,N/A,,Overcast,80,2014-04-03 05:54:00
2:54 AM,43.0,34.0,71,30.07,6.0,East,11.5,-,0.01,Rain,Rain,80,2014-04-03 06:54:00
3:54 AM,42.1,35.1,76,30.06,4.0,East,16.1,-,0.02,Rain,Rain,80,2014-04-03 07:54:00
4:54 AM,41.0,35.1,79,30.04,6.0,ENE,18.4,-,N/A,Rain,Light Rain,70,2014-04-03 08:54:00
5:54 AM,39.0,35.1,86,30.03,5.0,ENE,18.4,26.5,N/A,Rain,Light Rain,70,2014-04-03 09:54:00
6:54 AM,37.9,34.0,86,30.00,7.0,East,24.2,33.4,0.00,Rain,Light Rain,80,2014-04-03 10:54:00
7:54 AM,37.9,34.0,86,29.97,6.0,East,26.5,34.5,0.06,Rain,Light Rain,80,2014-04-03 11:54:00
8:30 AM,37.0,35.1,93,29.95,2.0,East,21.9,29.9,0.09,Rain,Heavy Rain,80,2014-04-03 12:30:00
8:54 AM,37.9,35.1,89,29.99,3.0,East,21.9,32.2,0.20,Rain,Rain,90,2014-04-03 12:54:00
9:38 AM,37.9,36.0,93,29.95,2.5,East,24.2,32.2,0.26,Rain,Heavy Rain,90,2014-04-03 13:38:00
9:54 AM,37.9,36.0,93,29.93,1.8,East,26.5,33.4,N/A,Rain,Heavy Rain,80,2014-04-03 13:54:00
10:11 AM,37.9,36.0,93,29.89,2.5,ENE,20.7,38.0,N/A,Rain,Heavy Rain,70,2014-04-03 14:11:00
10:19 AM,37.0,36.0,96,29.92,3.0,ENE,20.7,32.2,N/A,Rain,Rain,70,2014-04-03 14:19:00
10:42 AM,36.0,35.1,97,29.90,2.5,ENE,23.0,29.9,0.20,Rain,Heavy Rain,60,2014-04-03 14:42:00
10:54 AM,36.0,34.0,93,29.94,2.5,ENE,18.4,32.2,0.25,Rain,Rain,60,2014-04-03 14:54:00
11:14 AM,35.1,33.1,92,29.94,2.5,ENE,19.6,-,0.08,Rain-Thunderstorm,Thunderstorms and Rain,70,2014-04-03 15:14:00
11:54 AM,35.1,33.1,92,29.93,1.5,ENE,20.7,-,0.33,Rain,Rain,70,2014-04-03 15:54:00
12:47 PM,35.1,33.1,92,29.86,2.0,ENE,20.7,28.8,0.28,Rain,Rain,70,2014-04-03 16:47:00
12:54 PM,35.1,33.1,92,29.86,2.5,ENE,23.0,34.5,0.31,Rain,Rain,70,2014-04-03 16:54:00
1:54 PM,36.0,34.0,93,29.81,6.0,East,24.2,33.4,0.16,Rain,Light Rain,80,2014-04-03 17:54:00
2:54 PM,36.0,34.0,93,29.81,5.0,East,21.9,27.6,0.00,Rain,Light Rain,80,2014-04-03 18:54:00
3:45 PM,36.0,34.0,93,29.78,2.5,ENE,24.2,29.9,0.00,Rain,Light Rain,70,2014-04-03 19:45:00
3:54 PM,36.0,34.0,93,29.78,2.5,ENE,26.5,32.2,0.00,Rain,Light Rain,70,2014-04-03 19:54:00
4:13 PM,37.0,35.1,93,29.74,4.0,ENE,18.4,-,0.01,Rain,Light Rain,70,2014-04-03 20:13:00
4:54 PM,37.0,35.1,93,29.76,3.0,ENE,20.7,29.9,0.01,,Light Drizzle,70,2014-04-03 20:54:00
5:08 PM,37.0,35.1,93,29.77,2.5,East,26.5,29.9,0.00,Rain,Light Rain,80,2014-04-03 21:08:00
5:39 PM,37.0,35.1,93,29.77,3.0,ENE,18.4,25.3,0.01,Rain,Light Rain,70,2014-04-03 21:39:00
5:54 PM,37.0,35.1,93,29.77,4.0,East,21.9,26.5,0.01,Rain,Light Rain,80,2014-04-03 21:54:00
6:54 PM,37.0,35.1,93,29.80,3.0,East,17.3,-,0.00,Rain,Light Rain,80,2014-04-03 22:54:00
7:54 PM,37.0,35.1,93,29.81,3.0,ENE,11.5,-,0.00,,Light Drizzle,60,2014-04-03 23:54:00
8:11 PM,37.0,36.0,96,29.79,3.0,ENE,12.7,-,0.00,,Light Drizzle,60,2014-04-04 00:11:00
8:54 PM,37.0,36.0,96,29.81,4.0,ENE,12.7,-,0.00,,Light Drizzle,60,2014-04-04 00:54:00
9:17 PM,37.0,36.0,96,29.80,2.5,ENE,16.1,-,0.00,,Light Drizzle,60,2014-04-04 01:17:00
9:54 PM,37.0,36.0,96,29.83,2.5,ENE,12.7,-,0.00,,Light Drizzle,60,2014-04-04 01:54:00
10:19 PM,37.9,37.0,97,29.80,1.8,ENE,11.5,-,0.00,,Light Drizzle,60,2014-04-04 02:19:00
11:54 PM,37.0,36.0,96,29.76,1.2,ENE,11.5,-,0.00,,Overcast,60,2014-04-04 03:54:00